| time (UTC) | temp F | wind direction | speed knots | gust knots | rain 1hr in | rain 24hr in | rain mn in | humidity % | barometer mb |
| 20260503004042 | 66 | 72 | 2.6 | 6.1 | 0.00 | 0.00 | 0.00 | 33 | 1016.1 |
| 20260503003543 | 66 | 64 | 3.5 | 5.2 | 0.00 | 0.00 | 0.00 | 33 | 1016.1 |
| 20260503003154 | 65 | 80 | 1.7 | 4.3 | 0.00 | 0.00 | 0.00 | 35 | 1016.2 |
| 20260503002522 | 65 | 101 | 1.7 | 5.2 | 0.00 | 0.00 | 0.00 | 34 | 1016.3 |
| 20260503002042 | 65 | 80 | 0.9 | 5.2 | 0.00 | 0.00 | 0.00 | 34 | 1016.3 |
| 20260503001724 | 66 | 82 | 3.5 | 6.1 | 0.00 | 0.00 | 0.00 | 33 | 1016.3 |
| 20260503001035 | 66 | 101 | 0.9 | 8.7 | 0.00 | 0.00 | 0.00 | 33 | 1016.2 |
| 20260503000542 | 67 | 88 | 3.5 | 8.7 | 0.00 | 0.00 | 0.00 | 33 | 1016.3 |
| 20260503000157 | 67 | 48 | 4.3 | 10.4 | 0.00 | 0.00 | 0.00 | 33 | 1016.5 |
| 20260502235545 | 67 | 63 | 2.6 | 8.7 | 0.00 | 0.00 | 0.00 | 33 | 1016.3 |
| 20260502235024 | 67 | 86 | 1.7 | 7.8 | 0.00 | 0.00 | 0.00 | 33 | 1016.3 |
| 20260502234710 | 67 | 43 | 3.5 | 7.8 | 0.00 | 0.00 | 0.00 | 32 | 1016.3 |
| 20260502234023 | 67 | 35 | 2.6 | 7.0 | 0.00 | 0.00 | 0.00 | 33 | 1016.5 |
| 20260502233536 | 67 | 9 | 0.0 | 5.2 | 0.00 | 0.00 | 0.00 | 32 | 1016.6 |
| 20260502233206 | 67 | 36 | 0.9 | 7.8 | 0.00 | 0.00 | 0.00 | 34 | 1016.7 |
| 20260502232519 | 66 | 49 | 2.6 | 7.8 | 0.00 | 0.00 | 0.00 | 34 | 1016.7 |
| 20260502232038 | 66 | 63 | 3.5 | 6.1 | 0.00 | 0.00 | 0.00 | 34 | 1016.7 |
| 20260502231659 | 66 | 51 | 2.6 | 5.2 | 0.00 | 0.00 | 0.00 | 34 | 1016.8 |
| 20260502231023 | 66 | 30 | 2.6 | 7.0 | 0.00 | 0.00 | 0.00 | 34 | 1016.9 |
| 20260502230531 | 65 | 36 | 1.7 | 7.8 | 0.00 | 0.00 | 0.00 | 34 | 1017.0 |
| 20260502230230 | 65 | 360 | 2.6 | 7.0 | 0.00 | 0.00 | 0.00 | 33 | 1017.0 |
| 20260502225523 | 66 | 25 | 2.6 | 7.0 | 0.00 | 0.00 | 0.00 | 33 | 1017.1 |
| 20260502225042 | 66 | 20 | 2.6 | 6.1 | 0.00 | 0.00 | 0.00 | 34 | 1017.1 |
| 20260502224630 | 65 | 5 | 0.0 | 7.0 | 0.00 | 0.00 | 0.00 | 34 | 1017.3 |
| 20260502224024 | 66 | 360 | 1.7 | 7.8 | 0.00 | 0.00 | 0.00 | 33 | 1017.2 |
| 20260502223528 | 67 | 19 | 3.5 | 7.8 | 0.00 | 0.00 | 0.00 | 32 | 1017.4 |
| 20260502223215 | 68 | 22 | 3.5 | 7.0 | 0.00 | 0.00 | 0.00 | 32 | 1017.4 |
| 20260502222542 | 67 | 341 | 2.6 | 5.2 | 0.00 | 0.00 | 0.00 | 32 | 1017.4 |
| 20260502222041 | 67 | 167 | 0.0 | 3.5 | 0.00 | 0.00 | 0.00 | 33 | 1017.5 |
| 20260502221707 | 66 | 79 | 0.9 | 5.2 | 0.00 | 0.00 | 0.00 | 33 | 1017.6 |
| 20260502221014 | 66 | 28 | 0.9 | 7.0 | 0.00 | 0.00 | 0.00 | 34 | 1017.7 |
| 20260502220536 | 66 | 17 | 3.5 | 8.7 | 0.00 | 0.00 | 0.00 | 33 | 1017.8 |
| 20260502220217 | 67 | 5 | 3.5 | 10.4 | 0.00 | 0.00 | 0.00 | 32 | 1017.8 |
| 20260502215548 | 66 | 54 | 2.6 | 7.8 | 0.00 | 0.00 | 0.00 | 32 | 1017.8 |
| 20260502215043 | 67 | 69 | 0.9 | 7.0 | 0.00 | 0.00 | 0.00 | 33 | 1017.8 |
| 20260502214714 | 68 | 9 | 3.5 | 7.8 | 0.00 | 0.00 | 0.00 | 32 | 1018.0 |
| 20260502214030 | 67 | 66 | 4.3 | 10.4 | 0.00 | 0.00 | 0.00 | 32 | 1018.0 |
| 20260502213524 | 67 | 32 | 1.7 | 7.8 | 0.00 | 0.00 | 0.00 | 32 | 1018.1 |
| 20260502213215 | 67 | 141 | 0.9 | 7.8 | 0.00 | 0.00 | 0.00 | 32 | 1018.0 |
| 20260502212513 | 66 | 28 | 3.5 | 6.1 | 0.00 | 0.00 | 0.00 | 35 | 1018.2 |
| 20260502212032 | 65 | 97 | 1.7 | 6.1 | 0.00 | 0.00 | 0.00 | 32 | 1018.3 |
| 20260502211710 | 66 | 84 | 3.5 | 7.8 | 0.00 | 0.00 | 0.00 | 33 | 1018.4 |
| 20260502211030 | 66 | 35 | 1.7 | 7.8 | 0.00 | 0.00 | 0.00 | 33 | 1018.4 |
| 20260502210540 | 66 | 42 | 2.6 | 7.8 | 0.00 | 0.00 | 0.00 | 33 | 1018.5 |
| 20260502210224 | 66 | 13 | 3.5 | 7.8 | 0.00 | 0.00 | 0.00 | 34 | 1018.6 |
| 20260502205537 | 67 | 38 | 2.6 | 7.8 | 0.00 | 0.00 | 0.00 | 33 | 1018.7 |
| 20260502205030 | 66 | 59 | 4.3 | 6.1 | 0.00 | 0.00 | 0.00 | 34 | 1018.6 |
| 20260502204655 | 66 | 75 | 3.5 | 9.6 | 0.00 | 0.00 | 0.00 | 34 | 1018.8 |
| 20260502204024 | 65 | 63 | 5.2 | 9.6 | 0.00 | 0.00 | 0.00 | 34 | 1018.7 |
| 20260502203531 | 66 | 56 | 2.6 | 7.8 | 0.00 | 0.00 | 0.00 | 35 | 1018.7 |
| 20260502203246 | 66 | 113 | 2.6 | 12.2 | 0.00 | 0.00 | 0.00 | 34 | 1018.7 |
| 20260502202534 | 66 | 94 | 2.6 | 12.2 | 0.00 | 0.00 | 0.00 | 33 | 1018.7 |
| 20260502202024 | 66 | 40 | 4.3 | 10.4 | 0.00 | 0.00 | 0.00 | 35 | 1018.8 |
| 20260502201629 | 66 | 39 | 2.6 | 8.7 | 0.00 | 0.00 | 0.00 | 35 | 1018.9 |
| 20260502201036 | 65 | 63 | 4.3 | 7.8 | 0.00 | 0.00 | 0.00 | 35 | 1018.8 |
| 20260502200531 | 66 | 38 | 2.6 | 11.3 | 0.00 | 0.00 | 0.00 | 34 | 1018.9 |
| 20260502200130 | 66 | 34 | 3.5 | 11.3 | 0.00 | 0.00 | 0.00 | 35 | 1019.1 |
| 20260502195522 | 65 | 360 | 3.5 | 9.6 | 0.00 | 0.00 | 0.00 | 37 | 1019.1 |
| 20260502195039 | 65 | 25 | 3.5 | 8.7 | 0.00 | 0.00 | 0.00 | 36 | 1019.1 |
| 20260502194628 | 65 | 360 | 5.2 | 8.7 | 0.00 | 0.00 | 0.00 | 36 | 1019.1 |
| 20260502194031 | 65 | 360 | 2.6 | 7.8 | 0.00 | 0.00 | 0.00 | 34 | 1019.3 |
| 20260502193549 | 66 | 352 | 2.6 | 10.4 | 0.00 | 0.00 | 0.00 | 34 | 1019.3 |
| 20260502193124 | 66 | 26 | 4.3 | 10.4 | 0.00 | 0.00 | 0.00 | 37 | 1019.2 |
| 20260502192542 | 65 | 9 | 2.6 | 10.4 | 0.00 | 0.00 | 0.00 | 36 | 1019.4 |
| 20260502192020 | 66 | 11 | 4.3 | 11.3 | 0.00 | 0.00 | 0.00 | 35 | 1019.5 |
| 20260502191623 | 66 | 9 | 7.0 | 14.8 | 0.00 | 0.00 | 0.00 | 34 | 1019.5 |
| 20260502191019 | 67 | 73 | 7.0 | 14.8 | 0.00 | 0.00 | 0.00 | 34 | 1019.4 |
| 20260502190535 | 68 | 69 | 5.2 | 11.3 | 0.00 | 0.00 | 0.00 | 31 | 1019.5 |
| 20260502190131 | 67 | 91 | 5.2 | 11.3 | 0.00 | 0.00 | 0.00 | 34 | 1019.4 |
| 20260502185540 | 66 | 64 | 3.5 | 11.3 | 0.00 | 0.00 | 0.00 | 33 | 1019.5 |
| 20260502185035 | 66 | 104 | 5.2 | 11.3 | 0.00 | 0.00 | 0.00 | 33 | 1019.3 |
| 20260502184626 | 66 | 59 | 7.0 | 11.3 | 0.00 | 0.00 | 0.00 | 34 | 1019.4 |
| 20260502184021 | 65 | 87 | 3.5 | 9.6 | 0.00 | 0.00 | 0.00 | 34 | 1019.5 |
| 20260502183539 | 64 | 80 | 3.5 | 9.6 | 0.00 | 0.00 | 0.00 | 36 | 1019.6 |
| 20260502183137 | 64 | 36 | 4.3 | 9.6 | 0.00 | 0.00 | 0.00 | 35 | 1019.6 |
| 20260502182536 | 64 | 51 | 2.6 | 7.8 | 0.00 | 0.00 | 0.00 | 39 | 1019.6 |
| 20260502182038 | 63 | 36 | 2.6 | 8.7 | 0.00 | 0.00 | 0.00 | 38 | 1019.8 |
| 20260502181626 | 64 | 42 | 2.6 | 9.6 | 0.00 | 0.00 | 0.00 | 38 | 1019.8 |
| 20260502181020 | 64 | 19 | 1.7 | 8.7 | 0.00 | 0.00 | 0.00 | 38 | 1019.7 |
| 20260502180538 | 63 | 344 | 2.6 | 8.7 | 0.00 | 0.00 | 0.00 | 38 | 1019.8 |
| 20260502180137 | 64 | 60 | 4.3 | 8.7 | 0.00 | 0.00 | 0.00 | 40 | 1019.8 |
| 20260502170150 | 63 | 352 | 3.5 | 7.0 | 0.00 | 0.00 | 0.00 | 38 | 1019.7 |
| 20260502164035 | 62 | 15 | 3.5 | 7.8 | 0.00 | 0.00 | 0.00 | 40 | 1019.9 |
| 20260502163541 | 61 | 298 | 2.6 | 7.8 | 0.00 | 0.00 | 0.00 | 39 | 1019.8 |
| 20260502163141 | 62 | 352 | 3.5 | 10.4 | 0.00 | 0.00 | 0.00 | 40 | 1019.9 |
| 20260502162543 | 61 | 5 | 3.5 | 10.4 | 0.00 | 0.00 | 0.00 | 40 | 1020.0 |
| 20260502162042 | 61 | 34 | 1.7 | 5.2 | 0.00 | 0.00 | 0.00 | 40 | 1020.0 |
| 20260502161639 | 61 | 339 | 1.7 | 5.2 | 0.00 | 0.00 | 0.00 | 42 | 1020.0 |
| 20260502161041 | 61 | 32 | 1.7 | 4.3 | 0.00 | 0.00 | 0.00 | 39 | 1020.0 |
| 20260502160530 | 61 | 14 | 1.7 | 4.3 | 0.00 | 0.00 | 0.00 | 42 | 1019.9 |
| 20260502160146 | 61 | 85 | 0.9 | 3.5 | 0.00 | 0.00 | 0.00 | 41 | 1019.8 |
| 20260502152032 | 57 | 31 | 0.0 | 4.3 | 0.00 | 0.00 | 0.00 | 47 | 1019.8 |
| 20260502151643 | 57 | 57 | 1.7 | 4.3 | 0.00 | 0.00 | 0.00 | 46 | 1019.8 |
| 20260502151032 | 57 | 30 | 1.7 | 4.3 | 0.00 | 0.00 | 0.00 | 47 | 1019.8 |
| 20260502150549 | 57 | 40 | 0.9 | 3.5 | 0.00 | 0.00 | 0.00 | 46 | 1019.7 |
| 20260502150148 | 56 | 61 | 1.7 | 4.3 | 0.00 | 0.00 | 0.00 | 46 | 1019.6 |
| 20260502130541 | 46 | 50 | 0.9 | 1.7 | 0.00 | 0.00 | 0.00 | 60 | 1019.1 |
| 20260502130200 | 45 | 51 | 0.0 | 1.7 | 0.00 | 0.00 | 0.00 | 61 | 1018.8 |
| 20260502123519 | 45 | 59 | 2.6 | 4.3 | 0.00 | 0.00 | 0.00 | 60 | 1018.9 |
| 20260502123143 | 45 | 59 | 2.6 | 4.3 | 0.00 | 0.00 | 0.00 | 60 | 1018.8 |
| 20260502122531 | 45 | 60 | 1.7 | 3.5 | 0.00 | 0.00 | 0.00 | 59 | 1018.6 |
| 20260502122036 | 45 | 60 | 2.6 | 3.5 | 0.00 | 0.00 | 0.00 | 59 | 1018.6 |
| 20260502121637 | 45 | 65 | 1.7 | 4.3 | 0.00 | 0.00 | 0.00 | 59 | 1018.4 |
| 20260502121035 | 45 | 55 | 3.5 | 4.3 | 0.00 | 0.00 | 0.00 | 58 | 1018.3 |
| 20260502120525 | 46 | 59 | 1.7 | 3.5 | 0.00 | 0.00 | 0.00 | 57 | 1018.3 |
| 20260502120138 | 46 | 59 | 0.9 | 3.5 | 0.00 | 0.00 | 0.00 | 57 | 1018.2 |
| 20260502115522 | 46 | 45 | 0.9 | 4.3 | 0.00 | 0.00 | 0.00 | 57 | 1018.4 |
| 20260502115040 | 46 | 63 | 2.6 | 4.3 | 0.00 | 0.00 | 0.00 | 56 | 1018.1 |
| 20260502114630 | 46 | 77 | 2.6 | 4.3 | 0.00 | 0.00 | 0.00 | 56 | 1018.2 |
| 20260502114024 | 46 | 73 | 2.6 | 4.3 | 0.00 | 0.00 | 0.00 | 56 | 1018.1 |
| 20260502113540 | 46 | 53 | 1.7 | 3.5 | 0.00 | 0.00 | 0.00 | 56 | 1018.0 |
| 20260502113131 | 46 | 82 | 1.7 | 2.6 | 0.00 | 0.00 | 0.00 | 56 | 1017.8 |
| 20260502112527 | 46 | 82 | 1.7 | 2.6 | 0.00 | 0.00 | 0.00 | 56 | 1017.8 |
| 20260502112019 | 46 | 82 | 1.7 | 2.6 | 0.00 | 0.00 | 0.00 | 56 | 1017.7 |
| 20260502111640 | 46 | 82 | 0.9 | 2.6 | 0.00 | 0.00 | 0.00 | 56 | 1017.7 |
| 20260502111039 | 46 | 83 | 0.9 | 4.3 | 0.00 | 0.00 | 0.00 | 56 | 1017.5 |
| 20260502110524 | 45 | 80 | 1.7 | 4.3 | 0.00 | 0.00 | 0.00 | 56 | 1017.5 |
| 20260502110148 | 45 | 73 | 1.7 | 2.6 | 0.00 | 0.00 | 0.00 | 55 | 1017.4 |
| 20260502105540 | 45 | 73 | 1.7 | 3.5 | 0.00 | 0.00 | 0.00 | 54 | 1017.4 |
| 20260502105041 | 45 | 72 | 1.7 | 3.5 | 0.00 | 0.00 | 0.00 | 53 | 1017.4 |
| 20260502104645 | 46 | 83 | 1.7 | 3.5 | 0.00 | 0.00 | 0.00 | 53 | 1017.5 |
| 20260502104044 | 46 | 86 | 2.6 | 3.5 | 0.00 | 0.00 | 0.00 | 53 | 1017.4 |
| 20260502103542 | 46 | 105 | 0.0 | 1.7 | 0.00 | 0.00 | 0.00 | 53 | 1017.4 |
| 20260502103148 | 46 | 105 | 0.0 | 1.7 | 0.00 | 0.00 | 0.00 | 52 | 1017.3 |
| 20260502102542 | 46 | 105 | 0.0 | 1.7 | 0.00 | 0.00 | 0.00 | 53 | 1017.2 |
| 20260502102037 | 46 | 105 | 0.0 | 1.7 | 0.00 | 0.00 | 0.00 | 52 | 1017.1 |
| 20260502101644 | 47 | 105 | 0.9 | 2.6 | 0.00 | 0.00 | 0.00 | 52 | 1017.0 |
| 20260502101031 | 47 | 105 | 0.9 | 3.5 | 0.00 | 0.00 | 0.00 | 52 | 1017.0 |
| 20260502100535 | 47 | 80 | 1.7 | 3.5 | 0.00 | 0.00 | 0.00 | 51 | 1016.7 |
| 20260502100143 | 47 | 104 | 0.0 | 2.6 | 0.00 | 0.00 | 0.00 | 50 | 1016.9 |
| 20260502091040 | 42 | 26 | 1.7 | 7.0 | 0.00 | 0.00 | 0.00 | 54 | 1015.9 |
| 20260502090520 | 42 | 9 | 3.5 | 7.0 | 0.00 | 0.00 | 0.00 | 55 | 1015.8 |
| 20260502090147 | 42 | 360 | 3.5 | 7.0 | 0.00 | 0.00 | 0.00 | 55 | 1015.8 |
| 20260502071024 | 52 | 17 | 1.7 | 2.6 | 0.00 | 0.00 | 0.00 | 34 | 1015.2 |
| 20260502070534 | 52 | 360 | 0.9 | 1.7 | 0.00 | 0.00 | 0.00 | 34 | 1015.1 |
| 20260502070142 | 53 | 360 | 0.0 | 2.6 | 0.00 | 0.00 | 0.00 | 34 | 1015.0 |
| 20260502065536 | 54 | 360 | 0.9 | 2.6 | 0.00 | 0.00 | 0.00 | 33 | 1015.0 |
| 20260502065042 | 54 | 294 | 0.9 | 1.7 | 0.00 | 0.00 | 0.00 | 33 | 1015.0 |
| 20260502064647 | 54 | 294 | 0.0 | 1.7 | 0.00 | 0.00 | 0.00 | 32 | 1015.0 |
| 20260502064031 | 55 | 294 | 0.0 | 1.7 | 0.00 | 0.00 | 0.00 | 33 | 1015.0 |
| 20260502063543 | 54 | 294 | 0.9 | 1.7 | 0.00 | 0.00 | 0.00 | 33 | 1015.0 |
| 20260502063139 | 53 | 294 | 0.0 | 0.0 | 0.00 | 0.00 | 0.00 | 34 | 1015.0 |
| 20260502062527 | 53 | 294 | 0.0 | 0.9 | 0.00 | 0.00 | 0.00 | 34 | 1014.9 |
| 20260502062045 | 52 | 294 | 0.0 | 1.7 | 0.00 | 0.00 | 0.00 | 35 | 1014.9 |
| 20260502061633 | 51 | 294 | 0.0 | 1.7 | 0.00 | 0.00 | 0.00 | 36 | 1014.9 |
| 20260502061023 | 51 | 294 | 0.9 | 1.7 | 0.00 | 0.00 | 0.00 | 36 | 1015.0 |
| 20260502060536 | 53 | 294 | 0.9 | 1.7 | 0.00 | 0.00 | 0.00 | 34 | 1014.9 |
| 20260502060210 | 54 | 294 | 0.0 | 1.7 | 0.00 | 0.00 | 0.00 | 33 | 1014.8 |
| 20260502055535 | 53 | 294 | 0.9 | 1.7 | 0.00 | 0.00 | 0.00 | 35 | 1014.8 |
| 20260502055035 | 52 | 294 | 0.0 | 1.7 | 0.00 | 0.00 | 0.00 | 35 | 1014.9 |
| 20260502054640 | 53 | 294 | 0.9 | 1.7 | 0.00 | 0.00 | 0.00 | 33 | 1014.9 |
| 20260502054036 | 54 | 296 | 0.9 | 1.7 | 0.00 | 0.00 | 0.00 | 32 | 1014.9 |
| 20260502053542 | 55 | 11 | 0.0 | 0.0 | 0.00 | 0.00 | 0.00 | 32 | 1014.9 |
| 20260502053144 | 55 | 11 | 0.0 | 0.0 | 0.00 | 0.00 | 0.00 | 31 | 1014.9 |
| 20260502052520 | 56 | 11 | 0.0 | 0.9 | 0.00 | 0.00 | 0.00 | 31 | 1014.9 |
| 20260502052025 | 56 | 11 | 0.0 | 1.7 | 0.00 | 0.00 | 0.00 | 31 | 1014.9 |
| 20260502051645 | 56 | 11 | 0.0 | 1.7 | 0.00 | 0.00 | 0.00 | 30 | 1014.9 |
| 20260502051021 | 57 | 11 | 0.0 | 1.7 | 0.00 | 0.00 | 0.00 | 30 | 1014.9 |
| 20260502050541 | 57 | 11 | 0.0 | 1.7 | 0.00 | 0.00 | 0.00 | 30 | 1014.9 |
| 20260502050157 | 56 | 5 | 0.0 | 1.7 | 0.00 | 0.00 | 0.00 | 31 | 1014.9 |
| 20260502045542 | 56 | 300 | 0.0 | 0.0 | 0.00 | 0.00 | 0.00 | 31 | 1014.8 |
| 20260502045034 | 56 | 300 | 0.0 | 1.7 | 0.00 | 0.00 | 0.00 | 30 | 1014.9 |
| 20260502044643 | 57 | 300 | 0.0 | 1.7 | 0.00 | 0.00 | 0.00 | 30 | 1014.9 |
| 20260502044020 | 56 | 300 | 0.0 | 1.7 | 0.00 | 0.00 | 0.00 | 31 | 1014.9 |
| 20260502043523 | 57 | 300 | 0.0 | 1.7 | 0.00 | 0.00 | 0.00 | 30 | 1014.7 |
| 20260502043128 | 57 | 300 | 0.0 | 1.7 | 0.00 | 0.00 | 0.00 | 30 | 1014.8 |
| 20260502042529 | 57 | 300 | 0.0 | 1.7 | 0.00 | 0.00 | 0.00 | 30 | 1014.8 |
| 20260502042045 | 57 | 300 | 0.0 | 1.7 | 0.00 | 0.00 | 0.00 | 30 | 1014.7 |
| 20260502041639 | 57 | 300 | 0.0 | 2.6 | 0.00 | 0.00 | 0.00 | 29 | 1014.7 |
| 20260502041024 | 57 | 300 | 1.7 | 2.6 | 0.00 | 0.00 | 0.00 | 29 | 1014.7 |
| 20260502040530 | 57 | 318 | 0.0 | 2.6 | 0.00 | 0.00 | 0.00 | 30 | 1014.9 |
| 20260502040157 | 57 | 25 | 0.0 | 1.7 | 0.00 | 0.00 | 0.00 | 29 | 1014.8 |
| 20260502035542 | 57 | 25 | 0.0 | 1.7 | 0.00 | 0.00 | 0.00 | 30 | 1014.7 |
| 20260502035030 | 57 | 25 | 0.0 | 1.7 | 0.00 | 0.00 | 0.00 | 31 | 1014.8 |
| 20260502034636 | 56 | 25 | 0.9 | 1.7 | 0.00 | 0.00 | 0.00 | 32 | 1014.8 |
| 20260502034020 | 55 | 25 | 0.0 | 1.7 | 0.00 | 0.00 | 0.00 | 31 | 1014.7 |
| 20260502033544 | 55 | 25 | 0.0 | 1.7 | 0.00 | 0.00 | 0.00 | 31 | 1014.6 |
| 20260502033140 | 57 | 25 | 0.0 | 1.7 | 0.00 | 0.00 | 0.00 | 30 | 1014.6 |
| 20260502032528 | 60 | 25 | 0.0 | 0.0 | 0.00 | 0.00 | 0.00 | 26 | 1014.6 |
| 20260502032025 | 62 | 25 | 0.0 | 0.0 | 0.00 | 0.00 | 0.00 | 26 | 1014.6 |
| 20260502031635 | 62 | 25 | 0.0 | 1.7 | 0.00 | 0.00 | 0.00 | 26 | 1014.4 |
| 20260502031033 | 63 | 25 | 0.0 | 1.7 | 0.00 | 0.00 | 0.00 | 24 | 1014.3 |
| 20260502030542 | 63 | 25 | 0.0 | 1.7 | 0.00 | 0.00 | 0.00 | 24 | 1014.2 |
| 20260502030138 | 63 | 25 | 0.9 | 1.7 | 0.00 | 0.00 | 0.00 | 25 | 1014.2 |
| 20260502025547 | 63 | 25 | 0.9 | 1.7 | 0.00 | 0.00 | 0.00 | 25 | 1014.0 |
| 20260502025038 | 63 | 25 | 0.9 | 0.9 | 0.00 | 0.00 | 0.00 | 25 | 1014.1 |
| 20260502024643 | 64 | 25 | 0.9 | 0.9 | 0.00 | 0.00 | 0.00 | 25 | 1014.0 |
| 20260502024032 | 64 | 25 | 0.0 | 0.9 | 0.00 | 0.00 | 0.00 | 24 | 1013.9 |
| 20260502023537 | 65 | 25 | 0.0 | 0.9 | 0.00 | 0.00 | 0.00 | 24 | 1013.9 |
| 20260502023139 | 65 | 25 | 0.0 | 1.7 | 0.00 | 0.00 | 0.00 | 24 | 1014.0 |
| 20260502022522 | 65 | 25 | 0.9 | 1.7 | 0.00 | 0.00 | 0.00 | 24 | 1013.8 |
| 20260502022041 | 65 | 25 | 0.0 | 1.7 | 0.00 | 0.00 | 0.00 | 24 | 1013.9 |
| 20260502021629 | 66 | 25 | 0.0 | 1.7 | 0.00 | 0.00 | 0.00 | 23 | 1013.9 |
| 20260502021042 | 66 | 25 | 0.9 | 1.7 | 0.00 | 0.00 | 0.00 | 23 | 1014.0 |
| 20260502020542 | 67 | 25 | 0.0 | 1.7 | 0.00 | 0.00 | 0.00 | 23 | 1013.8 |
| 20260502020204 | 68 | 25 | 0.0 | 1.7 | 0.00 | 0.00 | 0.00 | 22 | 1013.9 |
| 20260502015527 | 68 | 25 | 0.0 | 1.7 | 0.00 | 0.00 | 0.00 | 22 | 1013.9 |
| 20260502015034 | 69 | 25 | 0.0 | 1.7 | 0.00 | 0.00 | 0.00 | 22 | 1013.9 |
| 20260502014639 | 70 | 25 | 0.0 | 2.6 | 0.00 | 0.00 | 0.00 | 21 | 1013.9 |
| 20260502014042 | 71 | 23 | 0.9 | 3.5 | 0.00 | 0.00 | 0.00 | 20 | 1014.0 |
| 20260502013528 | 71 | 23 | 0.9 | 4.3 | 0.00 | 0.00 | 0.00 | 20 | 1014.0 |
| 20260502013139 | 72 | 12 | 1.7 | 7.8 | 0.00 | 0.00 | 0.00 | 19 | 1013.9 |
| 20260502012542 | 73 | 28 | 4.3 | 8.7 | 0.00 | 0.00 | 0.00 | 19 | 1013.9 |
| 20260502012022 | 73 | 360 | 5.2 | 8.7 | 0.00 | 0.00 | 0.00 | 18 | 1014.0 |
| 20260502011644 | 73 | 18 | 5.2 | 10.4 | 0.00 | 0.00 | 0.00 | 18 | 1014.0 |
| 20260502011027 | 74 | 321 | 6.1 | 10.4 | 0.00 | 0.00 | 0.00 | 18 | 1014.0 |
| 20260502010528 | 74 | 352 | 7.0 | 12.2 | 0.00 | 0.00 | 0.00 | 18 | 1014.0 |
| 20260502010147 | 74 | 352 | 7.0 | 12.2 | 0.00 | 0.00 | 0.00 | 18 | 1014.0 |
| 20260502005537 | 74 | 9 | 7.8 | 11.3 | 0.00 | 0.00 | 0.00 | 18 | 1014.0 |
| 20260502005043 | 74 | 352 | 7.0 | 12.2 | 0.00 | 0.00 | 0.00 | 18 | 1014.1 |
| 20260502004650 | 75 | 360 | 7.8 | 11.3 | 0.00 | 0.00 | 0.00 | 18 | 1014.0 |